Date String (YYYY-MM-DD hh:mm:ss) UTC,Instrument flags,Ambient pressure (hPa),Sample flow (lpm),Bypass flow (lpm),Sample temperature (°C),Ambient temperature (°C),ASC tube jacket temperature (°C),LED temperature (°C),Box temperature (°C),Sample RH (%),Span deviation,Mass concentration (μg/m³),Mass concentration (μg/m³),Mass concentration (μg/m³)
DateTimeUTC,F1_M11,P_M11,Q1_M11,Q2_M11,T1_M11,T2_M11,T3_M11,T4_M11,T5_M11,U1_M11,ZSPAN_M11,X0_M11,X2_M11,X1_M11
2023-01-26 00:00:00,,0828.1,4.98,0.00,21.9,22.2,00.0,30.5,24.0,06.0,0000.0,0001.86,0000.49,0000.40
2023-01-26 00:01:00,,0828.1,5.02,0.00,22.0,21.8,00.0,30.6,23.9,06.1,0000.0,0001.84,0000.48,0000.40
2023-01-26 00:02:00,,0828.1,4.99,0.00,22.0,21.4,00.0,30.6,23.8,06.3,0000.0,0001.84,0000.47,0000.39
2023-01-26 00:03:00,,0828.1,5.02,0.00,22.0,21.0,00.0,30.6,23.8,06.4,0000.0,0001.86,0000.47,0000.39
2023-01-26 00:04:00,,0828.1,5.01,0.00,21.9,20.9,00.0,30.6,23.7,06.3,0000.0,0001.85,0000.48,0000.40
2023-01-26 00:05:00,,0828.1,5.01,0.00,21.9,20.7,00.0,30.6,23.7,06.1,0000.0,0001.85,0000.48,0000.40
2023-01-26 00:06:00,,0828.1,4.98,0.00,21.9,20.5,00.0,30.6,23.7,05.9,0000.0,0001.88,0000.49,0000.40
2023-01-26 00:07:00,,0828.2,5.00,0.00,21.9,20.4,00.0,30.6,23.6,05.8,0000.0,0001.93,0000.50,0000.40
2023-01-26 00:08:00,,0828.1,5.01,0.00,21.9,20.3,00.0,30.6,23.6,05.9,0000.0,0001.95,0000.51,0000.40
2023-01-26 00:09:00,,0828.1,4.99,0.00,21.9,20.1,00.0,30.6,23.5,05.9,0000.0,0001.93,0000.50,0000.40
2023-01-26 00:10:00,,0828.2,5.00,0.00,21.8,20.1,00.0,30.6,23.5,05.9,0000.0,0001.09,0000.50,0000.40
2023-01-26 00:11:00,,0828.2,4.99,0.00,21.8,20.0,00.0,30.6,23.5,06.3,0000.0,0000.76,0000.50,0000.39
2023-01-26 00:12:00,,0828.2,5.02,0.00,21.8,20.0,00.0,30.6,23.4,06.5,0000.0,0000.73,0000.48,0000.38
2023-01-26 00:13:00,,0828.2,5.00,0.00,21.8,20.0,00.0,30.6,23.4,06.1,0000.0,0000.70,0000.46,0000.37
2023-01-26 00:14:00,,0828.3,4.99,0.00,21.7,19.9,00.0,30.6,23.4,06.3,0000.0,0000.65,0000.44,0000.37
2023-01-26 00:15:00,,0828.2,5.00,0.00,21.7,19.9,00.0,30.6,23.4,06.4,0000.0,0000.74,0000.44,0000.36
2023-01-26 00:16:00,,0828.3,4.98,0.00,21.7,19.9,00.0,30.5,23.3,06.4,0000.0,0000.77,0000.44,0000.36
2023-01-26 00:17:00,,0828.3,5.00,0.00,21.7,19.9,00.0,30.5,23.3,06.2,0000.0,0000.77,0000.44,0000.35
2023-01-26 00:18:00,,0828.3,5.00,0.00,21.6,19.9,00.0,30.5,23.3,06.3,0000.0,0000.71,0000.42,0000.35
2023-01-26 00:19:00,,0828.3,5.01,0.00,21.6,19.8,00.0,30.5,23.3,06.1,0000.0,0000.68,0000.40,0000.34
2023-01-26 00:20:00,,0828.3,5.01,0.00,21.6,19.9,00.0,30.5,23.3,06.2,0000.0,0000.68,0000.40,0000.34
2023-01-26 00:21:00,,0828.3,5.01,0.00,21.6,20.5,00.0,30.5,23.4,06.3,0000.0,0000.68,0000.40,0000.34
2023-01-26 00:22:00,,0828.3,5.01,0.00,21.7,21.7,00.0,30.5,23.7,06.2,0000.0,0000.75,0000.44,0000.35
2023-01-26 00:23:00,,0828.3,4.99,0.00,21.9,22.6,00.0,30.5,23.9,06.4,0000.0,0000.82,0000.48,0000.37
2023-01-26 00:24:00,,0828.3,4.99,0.00,22.0,22.4,00.0,30.6,24.0,06.4,0000.0,0000.84,0000.50,0000.38
2023-01-26 00:25:00,,0828.3,5.00,0.00,22.0,21.9,00.0,30.6,23.9,06.5,0000.0,0000.88,0000.52,0000.39
2023-01-26 00:26:00,,0828.2,5.00,0.00,22.0,21.5,00.0,30.6,23.9,06.3,0000.0,0000.85,0000.54,0000.40
2023-01-26 00:27:00,,0828.3,5.03,0.00,22.0,21.1,00.0,30.6,23.8,06.1,0000.0,0000.83,0000.54,0000.40
2023-01-26 00:28:00,,0828.2,4.99,0.00,22.0,20.8,00.0,30.6,23.7,05.8,0000.0,0000.83,0000.54,0000.40
2023-01-26 00:29:00,,0828.2,5.02,0.00,21.9,20.5,00.0,30.6,23.6,05.9,0000.0,0000.85,0000.55,0000.40
2023-01-26 00:30:00,,0828.2,5.00,0.00,21.9,20.3,00.0,30.6,23.6,05.7,0000.0,0000.87,0000.56,0000.40
2023-01-26 00:31:00,,0828.2,5.02,0.00,21.9,20.2,00.0,30.6,23.5,05.7,0000.0,0000.88,0000.56,0000.40
2023-01-26 00:32:00,,0828.2,5.00,0.00,21.8,20.0,00.0,30.6,23.4,05.8,0000.0,0000.89,0000.56,0000.39
2023-01-26 00:33:00,,0828.2,5.00,0.00,21.8,19.9,00.0,30.6,23.4,05.7,0000.0,0000.84,0000.53,0000.38
2023-01-26 00:34:00,,0828.2,5.00,0.00,21.8,19.8,00.0,30.6,23.3,05.8,0000.0,0000.78,0000.48,0000.37
2023-01-26 00:35:00,,0828.2,5.01,0.00,21.7,19.7,00.0,30.6,23.3,06.0,0000.0,0000.74,0000.47,0000.36
2023-01-26 00:36:00,,0828.2,4.99,0.00,21.7,19.7,00.0,30.6,23.3,06.0,0000.0,0000.71,0000.45,0000.35
2023-01-26 00:37:00,,0828.3,5.01,0.00,21.7,19.7,00.0,30.5,23.3,06.0,0000.0,0000.66,0000.42,0000.34
2023-01-26 00:38:00,,0828.2,5.01,0.00,21.6,19.8,00.0,30.5,23.3,06.1,0000.0,0000.62,0000.40,0000.34
2023-01-26 00:39:00,,0828.3,5.00,0.00,21.6,19.8,00.0,30.5,23.2,06.1,0000.0,0000.59,0000.39,0000.33
2023-01-26 00:40:00,,0828.2,4.99,0.00,21.6,19.8,00.0,30.5,23.2,05.8,0000.0,0000.59,0000.39,0000.33
2023-01-26 00:41:00,,0828.2,5.00,0.00,21.6,19.8,00.0,30.5,23.2,05.8,0000.0,0000.59,0000.39,0000.33
2023-01-26 00:42:00,,0828.3,5.00,0.00,21.6,20.6,00.0,30.4,23.3,05.8,0000.0,0000.65,0000.41,0000.34
2023-01-26 00:43:00,,0828.3,5.00,0.00,21.7,21.8,00.0,30.5,23.6,05.9,0000.0,0001.04,0000.41,0000.34
2023-01-26 00:44:00,,0828.3,5.00,0.00,21.8,22.5,00.0,30.5,23.8,05.7,0000.0,0001.03,0000.41,0000.35
2023-01-26 00:45:00,,0828.4,5.01,0.00,21.9,22.1,00.0,30.5,23.9,05.9,0000.0,0001.09,0000.43,0000.35
2023-01-26 00:46:00,,0828.3,5.01,0.00,21.9,21.7,00.0,30.6,23.8,05.9,0000.0,0001.46,0000.51,0000.36
2023-01-26 00:47:00,,0828.4,5.00,0.00,21.9,21.3,00.0,30.6,23.7,06.0,0000.0,0001.55,0000.54,0000.36
2023-01-26 00:48:00,,0828.3,5.00,0.00,21.9,20.9,00.0,30.6,23.7,05.9,0000.0,0001.53,0000.53,0000.36
2023-01-26 00:49:00,,0828.3,5.02,0.00,21.9,20.7,00.0,30.6,23.6,05.6,0000.0,0001.54,0000.53,0000.36
2023-01-26 00:50:00,,0828.3,5.00,0.00,21.9,20.5,00.0,30.6,23.6,05.7,0000.0,0001.53,0000.53,0000.36
2023-01-26 00:51:00,,0828.3,5.00,0.00,21.9,20.4,00.0,30.6,23.6,05.7,0000.0,0001.51,0000.52,0000.36
2023-01-26 00:52:00,,0828.3,5.00,0.00,21.8,20.2,00.0,30.6,23.5,05.8,0000.0,0001.56,0000.53,0000.36
2023-01-26 00:53:00,,0828.4,5.00,0.00,21.8,20.1,00.0,30.6,23.5,05.8,0000.0,0001.56,0000.52,0000.36
2023-01-26 00:54:00,,0828.3,4.99,0.00,21.8,20.1,00.0,30.6,23.5,05.8,0000.0,0001.18,0000.51,0000.36
2023-01-26 00:55:00,,0828.4,4.99,0.00,21.8,20.0,00.0,30.6,23.4,05.8,0000.0,0001.24,0000.52,0000.35
2023-01-26 00:56:00,,0828.4,5.01,0.00,21.7,19.9,00.0,30.6,23.4,05.7,0000.0,0001.26,0000.53,0000.36
2023-01-26 00:57:00,,0828.4,5.00,0.00,21.7,19.9,00.0,30.6,23.4,05.8,0000.0,0000.91,0000.45,0000.35
2023-01-26 00:58:00,,0828.4,4.99,0.00,21.7,19.8,00.0,30.5,23.3,05.9,0000.0,0000.83,0000.43,0000.35
2023-01-26 00:59:00,,0828.4,5.02,0.00,21.7,19.9,00.0,30.5,23.3,05.8,0000.0,0000.84,0000.44,0000.35
